Location: Bittelbronn
(48.4454°N, 8.5870°E)
Time: 18:17:02
(UTC+00:00)

SAR-Lupe-1 - Pass Details

Date: 23 May 2024
Orbit: 479 x 482 km, 98.1° (Epoch: 04 May)

Event Time Altitude Azimuth Distance (km) Brightness Sun altitude
Rises 02:31:55 0° 12° (NNE) 2,553 8.8 -9.0°
Reaches altitude 10° 02:33:59 10° 10° (N) 1,668 7.7 -8.8°
Maximum altitude 02:37:33 73° 287° (WNW) 508 4.1 -8.3°
Drops below altitude 10° 02:41:06 10° 202° (SSW) 1,654 6.2 -7.9°
Enters shadow 02:41:25 - 201° (SSW) 1,789 6.4 -7.9°
